MIDAS 5 DEB, 274

Orbit data source: Space-Track

MIDAS 5 DEB, 274 is space debris in LEO originally from a launch on Mon, 09 Apr 1962 UTC launched from the Air Force Western Test Range (AFWTR). Debris objects in space refer to the collection of defunct objects orbiting the Earth. Examples of debris include non-operational satellites, rocket bodies, and fragments generated from explosions, collisions, or faulty payload assembly.

Loading next visibility...
Identifier
274, 1962-010D
Orbit
LEO
Country
Flag of USUS
Related business
Manufacturer
Unknown
Mission
Spacecraft
Bus & Motor
Unknown
Mass
~10 kg wet, ~10 kg dry
Launch date (UTC)
1962-04-09 (64 years ago)
Launch vehicle
Unknown
Launch site
Air Force Western Test Range (AFWTR)
Object type
Payload
Rocket body
Debris
Shape & HBR
Unknown shape, 0.5 m
Radar Cross Section
Medium (>0.1 m² and <1 m²)

Expand to show TLE details & history
Last TLE update: 1 day ago

TLE from 1 day ago
0 MIDAS 5 DEB
1   274U 62010D   25304.62375633 -.00000083  00000-0 -18043-1 0  9991
2   274  86.6768   6.6623 0350437  88.7473 275.3545  9.39378056179321
Epoch: 2025-10-31T14:58Z
TLE epoch observation values (Epoch: 2025-10-31T14:58:12.546Z)
Latitude
-0°
Longitude
101.9445°
Altitude
3,092.743 km
Speed
6.495 km/s
True Right ascension
00h 26m 38s
True Declination
0° 00' 00"
Sunlit
Object was in full shadow at epoch
Visualization orbit readout
Latitude
Unknown
Longitude
Unknown
Altitude
Unknown
Speed
Unknown
Apparent Right ascension
Unknown
Apparent Declination
Unknown
Sunlit
N/A
Visualization observer readout
Local Sidereal Time
10:36:45
Azimuth
Unknown
Elevation
Unknown
Doppler factor
Unknown
Orbital elements
Apogee altitude
3,439.987 km
Perigee altitude
2,775.158 km
Semi-major axis
9,485.709 km
Eccentricity
0.03504
Inclination
86.6768°
RAAN
6.6623°
Arg. of periapsis
88.7473°
True anomaly
271.34318°
Mean anomaly
275.3545°
Eccentric anomaly
273.35008°
Mean motion
2.3493 °/min
Orbital period
153.24 mins
BSTAR
-0.018043
Loading maneuver chart data...
Computing Atmospheric mass density...
Loading historical data...
Loading historical data...
Loading historical data...
Loading historical data...
Loading historical data...
Loading historical data...
Loading historical data...

Documentation

Showing up to 5 results
|